Regional Weather Roundup
Issued by NWS

Home | Current Version | Previous Version | Graphics & Text | Print | Product List | Glossary On
Versions: 1 2 3 4 5 6 7 8 9 10 11 12 13 14 15 16 17 18 19 20 21 22 23 24 25 26 27 28 29 30 31 32 33 34 35 36 37 38 39 40 41 42 43 44 45 46 47 48 49 50
058
ASUS45 KPSR 171710
RWRAZ

ARIZONA HOURLY REGIONAL WEATHER ROUNDUP
NATIONAL WEATHER SERVICE PHOENIX AZ
1000 AM MST THU AUG 17 2017

NOTE: FAIR INDICATES FEW OR NO CLOUDS BELOW 12,000 FEET WITH NO
SIGNIFICANT WEATHER AND/OR OBSTRUCTIONS TO VISIBILITY.

AZZ001>003-036-171800-
NORTHWEST ARIZONA

CITY           SKY/WX    TMP DP  RH WIND       PRES   REMARKS
BULLHEAD CITY  SUNNY     91  36  14 SW5       29.93S
KINGMAN        SUNNY     86  41  20 SW5       30.11S
$$

AZZ004>008-015-016-018-171800-
NORTH CENTRAL ARIZONA

CITY           SKY/WX    TMP DP  RH WIND       PRES   REMARKS
GRAND CANYON   SUNNY     73  39  29 SW8       30.34S
WILLIAMS       SUNNY     73  30  20 S8        30.35R
PRESCOTT       SUNNY     77  44  30 CALM      30.24R
FLAGSTAFF      SUNNY     71  33  24 CALM      30.37R
PAYSON           N/A     81  37  21 VRB5      30.26S
PAGE           SUNNY     82  38  20 N6        30.16R
$$

AZZ009>014-017-171800-
NORTHEAST ARIZONA

CITY           SKY/WX    TMP DP  RH WIND       PRES   REMARKS
WINSLOW        SUNNY     81  39  22 VRB6      30.23S
SAINT JOHNS    SUNNY     77  39  25 VRB3      30.29S
WINDOW ROCK    SUNNY     77  33  20 VRB5      30.34S
$$

AZZ540-542>544-546-548-171800-
GREATER PHOENIX AREA

CITY           SKY/WX    TMP DP  RH WIND       PRES   REMARKS
PHOENIX        SUNNY     90  43  19 SE6       29.97R
BUCKEYE        SUNNY     90  48  24 SE9       29.97R
GLENDALE       SUNNY     91  46  21 VRB6      29.99R
LUKE AFB       SUNNY     90  51  25 CALM      29.96R
DEER VALLEY    SUNNY     91  42  18 SE7       29.99R
SCOTTSDALE     SUNNY     90  38  16 SE6       30.01R
MESA-FALCON    SUNNY     91  43  18 S8        30.00R
MESA-GATEWAY   SUNNY     90  43  19 SE8       30.00R
CHANDLER       SUNNY     91  41  17 CALM      29.99R
$$

AZZ539-553-171800-
SOUTHWEST MARICOPA COUNTY AND PINAL COUNTY

CITY           SKY/WX    TMP DP  RH WIND       PRES   REMARKS
CASA GRANDE    SUNNY     88  43  20 CALM      30.01S
GILA BEND      SUNNY     94  40  15 NW3       29.94R
$$

AZZ503-504-507>509-171800-
SOUTHEAST ARIZONA

CITY           SKY/WX    TMP DP  RH WIND       PRES   REMARKS
TUCSON         NOT AVBL
DAVIS-MONTHAN  SUNNY     88  44  21 CALM      30.08S
RYAN FIELD     SUNNY     90  41  18 NE3       30.08S
NOGALES        SUNNY     84  42  22 S6        30.18R
SIERRA VISTA   SUNNY     83  44  25 S6        30.23S
DOUGLAS        SUNNY     81  52  36 W5        30.19S
SAFFORD        SUNNY     84  49  29 W6        30.10S
$$

AZZ532-171800-
SOUTHWEST ARIZONA

CITY           SKY/WX    TMP DP  RH WIND       PRES   REMARKS
YUMA           SUNNY     92  50  23 VRB3      29.90R
$$

CAZ041-043-047-048-061-525>527-560>570-171800-
SOUTHERN CALIFORNIA

CITY           SKY/WX    TMP DP  RH WIND       PRES   REMARKS
DOWNTOWN L.A.  MOSUNNY   73  60  63 S3        30.02R
L.A. AIRPORT   PTSUNNY   70  62  76 W7        30.03R
SAN DIEGO      MOSUNNY   71  60  68 S7        30.05R
BURBANK        SUNNY     72  59  63 CALM      30.03R
ONTARIO        SUNNY     73  59  61 SW5       30.03S
RIVERSIDE      SUNNY     71  61  70 W7        30.03S
PALM SPRINGS   SUNNY     92  50  23 CALM      29.92R
EL CENTRO NAS  SUNNY     94  43  17 W6        29.90R
IMPERIAL       SUNNY     93  50  23 VRB7      29.88R
BLYTHE         SUNNY     91  51  25 MISG      29.91R
NEEDLES        SUNNY     94  36  13 E3        29.94S
$$

NVZ020-UTZ003-171800-
SOUTHERN NEVADA-UTAH

CITY           SKY/WX    TMP DP  RH WIND       PRES   REMARKS
LAS VEGAS      MOSUNNY   91  42  18 VRB3      30.02R
SALT LAKE CITY MOSUNNY   81  45  28 SE5       30.14R
$$

NMZ009-TXZ055-171800-
NEW MEXICO-WEST TEXAS

CITY           SKY/WX    TMP DP  RH WIND       PRES   REMARKS
ALBUQUERQUE    MOSUNNY   79  39  23 VRB5      30.25S
EL PASO        PTSUNNY   86  48  26 CALM      30.14S
$$


........................KEY........................
SKY/WX - SKY CONDITION/WEATHER
TMP    - TEMPERATURE IN FAHRENHEIT
DP     - DEW POINT IN FAHRENHEIT
RH     - RELATIVE HUMIDITY IN PERCENT
WIND   - DIRECTION AND SPEED IN MILES PER HOUR (MPH)
VRB    - VARIABLE WIND DIRECTION
PRES   - MEAN SEA LEVEL PRESSURE IN INCHES OF MERCURY
         F - FALLING PRESSURE   R - RISING PRESSURE
         S - STEADY PRESSURE
VSB    - VISIBILITY IN MILES
HX     - HEAT INDEX IN FAHRENHEIT
WCI    - WIND CHILL INDEX IN FAHRENHEIT
TC     - TEMPERATURE IN CELSIUS WHICH IS ALSO KNOWN AS
         TEMPERATURE IN CENTIGRADE
AFB    - AIR FORCE BASE
         LUKE AFB IS LUKE AIR FORCE BASE
         DAVIS-MONTHAN IS DAVIS-MONTHAN AIR FORCE BASE
NAS    - NAVAL AIR STATION
         EL CENTRO NAS IS EL CENTRO NAVAL AIR STATION
N/A    - NOT AVAILABLE





USA.gov is the U.S. government's official web portal to all federal, state and local government web resources and services.